Location: Dallas
(32.7833°N, 96.8000°W)
Time: 22:12:42
(UTC-06:00)

Envisat - Pass Details

Date: 16 December 2021
Orbit: 764 x 766 km, 98.2° (Epoch: 23 January)

Event Time Altitude Azimuth Distance (km) Brightness Sun altitude
Rises 05:28:58 0° 10° (N) 3,234 6.2 -23.2°
Reaches altitude 10° 05:31:17 10° 8° (N) 2,305 5.4 -22.8°
Maximum altitude 05:36:21 75° 284° (WNW) 792 2.8 -21.7°
Drops below altitude 10° 05:41:23 10° 200° (SSW) 2,290 5.4 -20.7°
Sets 05:43:40 0° 198° (SSW) 3,212 6.2 -20.2°
